Regional Weather Roundup
Issued by NWS

Home | Current Version | Previous Version | Graphics & Text | Print | Product List | Glossary On
Versions: 1 2 3 4 5 6 7 8 9 10 11 12 13 14 15 16 17 18 19 20 21 22 23 24 25 26 27 28 29 30 31 32 33 34 35 36 37 38 39 40 41 42 43 44 45 46 47 48 49 50
000
ASUS45 KCYS 211210
RWRWY

WYOMING REGIONAL WEATHER ROUNDUP
NATIONAL WEATHER SERVICE CHEYENNE WY
600 AM MDT MON JUL 21 2014

NOTE:  "FAIR" INDICATES FEW OR NO CLOUDS BELOW 12,000 FEET
WITH NO SIGNIFICANT WEATHER AND/OR OBSTRUCTIONS TO VISIBILITY.

WYZ001-211300-
YELLOWSTONE NATIONAL PARK

CITY           SKY/WX    TMP DP  RH WIND       PRES   REMARKS
LK YELLOWSTONE   N/A     51  49  92 CALM      30.25F
6HR MIN TEMP:  51; 6HR MAX TEMP:  62; 6HR PCP:  0.05;

W YELLOWSTONE  NOT AVBL

$$
WYZ002>013-054>058-071-098>099-211300-
NORTHERN WYOMING

CITY           SKY/WX    TMP DP  RH WIND       PRES   REMARKS
JACKSON        MOCLDY    61  48  63 SW10      30.16R
CODY           MOCLDY    66  45  45 W5        30.00R
GREYBULL       CLOUDY    75  42  30 W8        29.90R
6HR MIN TEMP:  75; 6HR MAX TEMP:  82; 6HR PCP: TRACE;

WORLAND        CLOUDY    76  43  30 SE7       29.92R
6HR MIN TEMP:  73; 6HR MAX TEMP:  83;

SHERIDAN       CLOUDY    64  53  67 SW3       29.89R
6HR MIN TEMP:  59; 6HR MAX TEMP:  72; 6HR PCP:  0.01;

BUFFALO        MOCLDY    69  43  38 N5        29.95R
6HR MIN TEMP:  68; 6HR MAX TEMP:  76;

GILLETTE       PTCLDY    72  44  36 SW17      29.88R
6HR MIN TEMP:  59; 6HR MAX TEMP:  73;

HULETT         FAIR      73  45  35 MISG      29.88
NEWCASTLE      FAIR      66  41  39 E3        29.93

$$
WYZ014>020-022>026-101>103-211300-
CENTRAL WYOMING

CITY           SKY/WX    TMP DP  RH WIND       PRES   REMARKS
BIG PINEY      MOCLDY    52  47  83 E6        30.24R
6HR MIN TEMP:  50; 6HR MAX TEMP:  64; 6HR PCP: TRACE;

PINEDALE       PTSUNNY   54  50  87 MISG      30.26R
DUBOIS         FAIR      59  39  47 W10       30.20R
LANDER         PTCLDY    73  40  30 SW13G22   30.06R
6HR MIN TEMP:  71; 6HR MAX TEMP:  80;

RIVERTON       PTCLDY    67  40  37 W3        30.07R
6HR MIN TEMP:  63; 6HR MAX TEMP:  77;

CASPER         CLEAR     63  43  48 SW12      30.05R
6HR MIN TEMP:  59; 6HR MAX TEMP:  73;

DOUGLAS        PTCLDY    68  42  38 SW3       30.02R
6HR MIN TEMP:  67; 6HR MAX TEMP:  78;


$$
WYZ021-027>030-104>119-211300-
SOUTHERN WYOMING

CITY           SKY/WX    TMP DP  RH WIND       PRES   REMARKS
EVANSTON       CLEAR     55  46  71 S7        30.23R
6HR MIN TEMP:  53; 6HR MAX TEMP:  59;

KEMMERER       MOSUNNY   48  45  87 N5        30.25R
FORT BRIDGER   FAIR      54  45  71 SW8       30.25S
ROCK SPRINGS   CLEAR     58  42  55 NW3       30.21R
6HR MIN TEMP:  54; 6HR MAX TEMP:  63;

DIXON          FAIR      49  45  87 E5        30.26R
RAWLINS        CLEAR     54  38  54 S3        30.21S
6HR MIN TEMP:  54; 6HR MAX TEMP:  71;

SARATOGA       FAIR      52  43  71 CALM      30.25S
LARAMIE        PTCLDY    57  43  59 SW14      30.24S
6HR MIN TEMP:  57; 6HR MAX TEMP:  63;

CHEYENNE       CLEAR     64  45  49 W13       30.15R
6HR MIN TEMP:  63; 6HR MAX TEMP:  69;

TORRINGTON     CLEAR     65  49  56 SE6       29.97R
6HR MIN TEMP:  65; 6HR MAX TEMP:  80;

PINE BLUFFS    FAIR      61  46  59 CALM      30.07S

$$


USA.gov is the U.S. government's official web portal to all federal, state and local government web resources and services.